Miscellaneous Local Product
Issued by NWS North Platte, NE

Home | Current Version | Previous Version | Text Only | Print | Product List | Glossary On
Versions: 1 2 3 4 5 6 7 8 9 10 11 12 13 14 15 16 17 18 19 20 21 22 23 24 25 26 27 28 29 30 31 32 33 34 35 36 37 38 39 40 41 42 43 44 45 46 47 48 49 50
000
AXUS43 KLBF 270110
MISLBF


WESTERN AND NORTH CENTRAL NEBRASKA HOURLY WEATHER ROUNDUP
NATIONAL WEATHER SERVICE NORTH PLATTE NE
800 PM CDT SUN APR 26 2015

***STATIONS NOT REPORTING VARIABLES SUCH AS SKY/WEATHER OR
PRESSURE ARE PROVIDED BY THE NEBRASKA DEPARTMENT OF
ROADS...RAWS...AND APRS NETWORKS...AND ARE NOT UNDER
NATIONAL WEATHER SERVICE QUALITY CONTROL***

...OBSERVATIONS IN AND NEAR THE EASTERN PANHANDLE OF NEBRASKA...

CITY           SKY/WX    TMP DP  RH WIND       PRES   REMARKS
PINE RIDGE     CLOUDY    50  37  61 SE10      30.05R
CHADRON        CLOUDY    51  43  74 SE9       30.03R
ALLIANCE       CLOUDY    46  38  73 SE9       30.04R
SIDNEY         LGT RAIN  41  40  96 E12       30.02R VSB 1/2
$$

...OBSERVATIONS IN NORTH CENTRAL NEBRASKA...

CITY           SKY/WX    TMP DP  RH WIND       PRES   REMARKS
VALENTINE      MOCLDY    57  35  43 E8        30.04R
THEDFORD       MOCLDY    56  39  52 E9        30.03R
AINSWORTH      PTCLDY    57  29  34 E9        30.03S
O`NEILL        CLEAR     59  32  35 E6        30.04S
ORD            CLEAR     56  36  47 E10       30.01R
BROKEN BOW     PTCLDY    54  40  59 E7        30.00S
$$

...OBSERVATIONS IN SOUTHWEST NEBRASKA AND FAR NORTHEAST COLORADO...

CITY           SKY/WX    TMP DP  RH WIND       PRES   REMARKS
WRAY           CLOUDY    46  46 100 NE10      29.99R
HOLYOKE        CLOUDY    45  43  93 E13       30.01R FOG
IMPERIAL       CLOUDY    47  42  83 NE9       30.00R
OGALLALA       CLOUDY    48  43  84 E8        30.02R
MCCOOK         CLOUDY    52  43  71 NE12      29.98R
LEXINGTON      CLOUDY    53  44  70 E9        30.00R
$$

...NORTH PLATTE AREA...

CITY           SKY/WX    TMP DP  RH WIND       PRES   REMARKS
$$

...SOME WEATHER OBSERVATIONS FROM AROUND THE REGION...

CITY           SKY/WX    TMP DP  RH WIND       PRES   REMARKS
DENVER         DRIZZLE   42  42 100 E12       29.98R FOG
LARAMIE        CLOUDY    40  34  79 SE14      29.97R WCI  32
CHEYENNE       CLOUDY    39  37  92 E9        29.99R FOG     WCI  33
SCOTTSBLUFF    CLOUDY    46  32  58 SE12      30.03R
RAPID CITY     CLOUDY    50  46  86 CALM      30.07R
PIERRE         CLOUDY    59  34  39 E7        30.04R
WINNER         FAIR      61  31  32 E9        30.05R
SIOUX FALLS    PTCLDY    60  34  37 N10       30.05R
OMAHA          PTCLDY    60  35  39 NE10      30.02R
GRAND ISLAND   CLEAR     55  41  59 E9        30.01R
KANSAS CITY    PTCLDY    58  38  47 E14       29.96R
WICHITA        CLOUDY    53  44  71 E18       29.88R
HAYS           CLOUDY    48  37  66 E16       29.96R
LIBERAL        CLOUDY    52  46  82 E7        29.92S
GOODLAND       CLOUDY    45  44  97 E13       29.98R
$$



USA.gov is the U.S. government's official web portal to all federal, state and local government web resources and services.